TimeAKDT,TemperatureF,Dew PointF,Humidity,Sea Level PressureIn,VisibilityMPH,Wind Direction,Wind SpeedMPH,Gust SpeedMPH,PrecipitationIn,Events,Conditions,WindDirDegrees,DateUTC
12:16 AM,50.0,46.4,87,29.40,10.0,Calm,Calm,-,N/A,,Mostly Cloudy,0,2013-09-04 08:16:00
12:36 AM,48.2,46.4,93,29.40,10.0,NE,3.5,-,N/A,,Mostly Cloudy,40,2013-09-04 08:36:00
12:56 AM,48.2,44.6,87,29.40,10.0,Calm,Calm,-,N/A,,Mostly Cloudy,0,2013-09-04 08:56:00
1:16 AM,48.2,46.4,93,29.40,10.0,Calm,Calm,-,N/A,,Overcast,0,2013-09-04 09:16:00
1:36 AM,48.2,46.4,93,29.40,10.0,Calm,Calm,-,N/A,,Overcast,0,2013-09-04 09:36:00
1:56 AM,48.2,46.4,93,29.40,9.0,Calm,Calm,-,N/A,,Overcast,0,2013-09-04 09:56:00
2:16 AM,48.2,46.4,93,29.40,8.0,Calm,Calm,-,N/A,,Overcast,0,2013-09-04 10:16:00
2:36 AM,48.2,46.4,93,29.40,5.0,Calm,Calm,-,N/A,,Overcast,0,2013-09-04 10:36:00
2:56 AM,48.2,46.4,93,29.40,5.0,Calm,Calm,-,0.01,,Overcast,0,2013-09-04 10:56:00
3:16 AM,48.2,46.4,93,29.39,7.0,Calm,Calm,-,0.01,,Overcast,0,2013-09-04 11:16:00
3:36 AM,48.2,46.4,93,29.40,10.0,Calm,Calm,-,0.01,,Overcast,0,2013-09-04 11:36:00
3:56 AM,48.2,46.4,93,29.40,10.0,Calm,Calm,-,0.01,,Overcast,0,2013-09-04 11:56:00
4:16 AM,48.2,46.4,93,29.41,6.0,Calm,Calm,-,N/A,,Overcast,0,2013-09-04 12:16:00
4:36 AM,48.2,46.4,93,29.41,9.0,Calm,Calm,-,N/A,,Overcast,0,2013-09-04 12:36:00
4:56 AM,48.2,46.4,93,29.41,8.0,Calm,Calm,-,N/A,,Overcast,0,2013-09-04 12:56:00
5:16 AM,48.2,46.4,93,29.41,7.0,East,4.6,-,N/A,,Overcast,100,2013-09-04 13:16:00
5:36 AM,48.2,46.4,93,29.41,9.0,Calm,Calm,-,N/A,,Overcast,0,2013-09-04 13:36:00
5:56 AM,48.2,46.4,93,29.42,9.0,Calm,Calm,-,N/A,,Overcast,0,2013-09-04 13:56:00
6:16 AM,48.2,46.4,93,29.42,10.0,Calm,Calm,-,N/A,,Overcast,0,2013-09-04 14:16:00
6:36 AM,48.2,46.4,93,29.42,10.0,Calm,Calm,-,N/A,,Overcast,0,2013-09-04 14:36:00
6:56 AM,48.2,46.4,93,29.43,10.0,Calm,Calm,-,N/A,,Overcast,0,2013-09-04 14:56:00
7:16 AM,48.2,46.4,93,29.44,8.0,ESE,3.5,-,N/A,,Overcast,120,2013-09-04 15:16:00
7:36 AM,48.2,46.4,93,29.45,10.0,Calm,Calm,-,N/A,,Overcast,0,2013-09-04 15:36:00
7:56 AM,48.2,46.4,93,29.45,10.0,East,3.5,-,N/A,,Overcast,90,2013-09-04 15:56:00
8:16 AM,48.2,46.4,93,29.46,10.0,Calm,Calm,-,N/A,,Overcast,0,2013-09-04 16:16:00
8:36 AM,48.2,46.4,93,29.46,10.0,ENE,3.5,-,N/A,,Overcast,70,2013-09-04 16:36:00
8:56 AM,48.2,46.4,93,29.47,10.0,ESE,3.5,-,N/A,,Overcast,110,2013-09-04 16:56:00
9:16 AM,48.2,46.4,93,29.48,10.0,East,3.5,-,N/A,,Overcast,90,2013-09-04 17:16:00
9:36 AM,51.8,46.4,82,29.49,10.0,East,6.9,-,N/A,,Overcast,100,2013-09-04 17:36:00
9:56 AM,53.6,48.2,82,29.49,10.0,East,4.6,-,N/A,,Overcast,100,2013-09-04 17:56:00
10:16 AM,53.6,48.2,82,29.49,10.0,East,5.8,-,N/A,,Mostly Cloudy,80,2013-09-04 18:16:00
10:36 AM,55.4,48.2,77,29.50,10.0,Calm,Calm,-,N/A,,Scattered Clouds,0,2013-09-04 18:36:00
10:56 AM,55.4,46.4,72,29.51,10.0,SSW,5.8,-,N/A,,Mostly Cloudy,200,2013-09-04 18:56:00
11:16 AM,55.4,46.4,72,29.52,10.0,SSW,6.9,-,N/A,,Overcast,210,2013-09-04 19:16:00
11:36 AM,55.4,46.4,72,29.53,10.0,SW,8.1,-,N/A,,Overcast,220,2013-09-04 19:36:00
11:56 AM,55.4,46.4,72,29.54,10.0,SSW,8.1,-,N/A,,Overcast,210,2013-09-04 19:56:00
12:16 PM,55.4,44.6,67,29.55,10.0,SSW,8.1,18.4,N/A,,Overcast,210,2013-09-04 20:16:00
12:36 PM,55.4,46.4,72,29.55,10.0,SSW,10.4,16.1,N/A,,Overcast,210,2013-09-04 20:36:00
12:56 PM,57.2,46.4,67,29.56,10.0,SW,13.8,19.6,N/A,,Overcast,220,2013-09-04 20:56:00
1:16 PM,57.2,46.4,67,29.57,10.0,SW,12.7,24.2,N/A,,Overcast,230,2013-09-04 21:16:00
1:36 PM,57.2,46.4,67,29.58,10.0,WSW,16.1,23.0,N/A,,Overcast,240,2013-09-04 21:36:00
1:56 PM,55.4,46.4,72,29.59,10.0,SW,13.8,19.6,N/A,,Overcast,230,2013-09-04 21:56:00
2:16 PM,55.4,46.4,72,29.59,10.0,SSW,8.1,-,N/A,,Mostly Cloudy,210,2013-09-04 22:16:00
2:36 PM,57.2,46.4,67,29.60,10.0,SW,9.2,16.1,N/A,,Overcast,220,2013-09-04 22:36:00
2:56 PM,55.4,46.4,72,29.60,10.0,SW,9.2,-,N/A,,Mostly Cloudy,230,2013-09-04 22:56:00
3:16 PM,55.4,46.4,72,29.62,10.0,SW,8.1,-,N/A,,Overcast,220,2013-09-04 23:16:00
3:36 PM,55.4,46.4,72,29.62,10.0,SW,6.9,-,N/A,,Overcast,230,2013-09-04 23:36:00
3:56 PM,55.4,44.6,67,29.63,10.0,SSW,10.4,18.4,N/A,,Overcast,210,2013-09-04 23:56:00
4:16 PM,55.4,44.6,67,29.63,10.0,South,8.1,-,N/A,,Overcast,190,2013-09-05 00:16:00
4:36 PM,57.2,44.6,63,29.64,10.0,SSW,11.5,16.1,N/A,,Overcast,200,2013-09-05 00:36:00
4:56 PM,57.2,42.8,59,29.64,10.0,SW,11.5,21.9,N/A,,Mostly Cloudy,220,2013-09-05 00:56:00
5:16 PM,55.4,44.6,67,29.64,10.0,SSW,8.1,-,N/A,,Mostly Cloudy,210,2013-09-05 01:16:00
5:36 PM,55.4,42.8,63,29.65,10.0,SW,10.4,-,N/A,,Scattered Clouds,220,2013-09-05 01:36:00
5:56 PM,57.2,42.8,59,29.65,10.0,SW,9.2,-,N/A,,Partly Cloudy,220,2013-09-05 01:56:00
6:16 PM,57.2,42.8,59,29.66,10.0,WSW,13.8,19.6,N/A,,Partly Cloudy,240,2013-09-05 02:16:00
6:36 PM,57.2,42.8,59,29.66,10.0,SW,15.0,19.6,N/A,,Clear,230,2013-09-05 02:36:00
6:56 PM,57.2,42.8,59,29.68,10.0,SW,11.5,16.1,N/A,,Clear,220,2013-09-05 02:56:00
7:16 PM,57.2,41.0,55,29.68,10.0,SW,9.2,-,N/A,,Clear,230,2013-09-05 03:16:00
7:36 PM,57.2,42.8,59,29.69,10.0,SW,5.8,-,N/A,,Clear,220,2013-09-05 03:36:00
7:56 PM,55.4,42.8,63,29.70,10.0,SSW,9.2,-,N/A,,Clear,200,2013-09-05 03:56:00
8:16 PM,55.4,42.8,63,29.70,10.0,South,4.6,-,N/A,,Clear,180,2013-09-05 04:16:00
8:36 PM,53.6,42.8,67,29.71,10.0,South,4.6,-,N/A,,Clear,170,2013-09-05 04:36:00
8:56 PM,53.6,42.8,67,29.72,10.0,South,3.5,-,N/A,,Clear,180,2013-09-05 04:56:00
9:16 PM,51.8,42.8,71,29.73,10.0,SE,4.6,-,N/A,,Clear,140,2013-09-05 05:16:00
9:36 PM,51.8,42.8,71,29.74,10.0,Calm,Calm,-,N/A,,Clear,0,2013-09-05 05:36:00
9:56 PM,48.2,42.8,82,29.75,10.0,SSE,3.5,-,N/A,,Clear,160,2013-09-05 05:56:00
10:16 PM,50.0,42.8,76,29.76,10.0,South,4.6,-,N/A,,Clear,170,2013-09-05 06:16:00
10:36 PM,50.0,41.0,71,29.77,10.0,SE,3.5,-,N/A,,Clear,140,2013-09-05 06:36:00
10:56 PM,48.2,41.0,76,29.78,10.0,Calm,Calm,-,N/A,,Clear,0,2013-09-05 06:56:00
11:16 PM,44.6,39.2,81,29.79,10.0,East,5.8,-,N/A,,Clear,100,2013-09-05 07:16:00
11:36 PM,46.4,39.2,76,29.79,10.0,ESE,4.6,-,N/A,,Clear,120,2013-09-05 07:36:00
11:56 PM,46.4,39.2,76,29.80,10.0,ESE,4.6,-,N/A,,Clear,120,2013-09-05 07:56:00